Showing default

TIROS 4, 226

Orbit data source: Space-Track

TIROS 4, 226 is a payload satellite owned by GSFC (US) in LEO that was launched on Thu, 08 Feb 1962 UTC via a THOR DELTA launch vehicle from the Air Force Eastern Test Range (AFETR). Payload-class satellites include a variety of spacecraft equipped with specific instruments for various scientific and technological missions. These include communications satellites like Starlink; space stations such as the ISS; scientific satellites like the Hubble; Earth observation satellites from companies like Planet Labs, Umbra, and HawkEye 360; GPS; miniature CubeSats for education and research; and military/defense satellites.

Loading next visibility...
Identifier
226, 1962-002A
Orbit
LEO
Country
Flag of USUS
Related business
Manufacturer
RCA/East Windsor
Mission
Non-operational spacecraft
Bus & Motor
TIROS, Unknown motor
Mass
129 kg wet, 129 kg dry
Launch date (UTC)
1962-02-08 (64 years ago)
Launch vehicle
THOR DELTA
Launch site
Air Force Eastern Test Range (AFETR)
Object type
Payload
Rocket body
Debris
Shape & HBR
Unknown
Radar Cross Section
Medium (>0.1 m² and <1 m²)

Expand to show TLE details & history
Last TLE update: 9 hours ago

TLE from 9 hours ago
0 TIROS 4
1   226U 62002A   26130.12577060 -.00000055  00000-0  31856-4 0  9998
2   226  48.2942 183.0644 0075485  95.5349 265.4165 14.47173365362934
Epoch: 2026-05-10T03:01Z
TLE epoch observation values (Epoch: 2026-05-10T03:01:06.579Z)
Latitude
-0.00009°
Longitude
-90.14643°
Altitude
739.942 km
Speed
7.484 km/s
True Right ascension
12h 12m 15s
True Declination
0° 00' 00"
Sunlit
Object was in full shadow at epoch
Visualization orbit readout
Latitude
Unknown
Longitude
Unknown
Altitude
Unknown
Speed
Unknown
Apparent Right ascension
Unknown
Apparent Declination
Unknown
Sunlit
N/A
Visualization observer readout
Local Sidereal Time
20:28:51
Azimuth
Unknown
Elevation
Unknown
Doppler factor
Unknown
Orbital elements
Apogee altitude
789.616 km
Perigee altitude
682.215 km
Semi-major axis
7,114.052 km
Eccentricity
0.00755
Inclination
48.2942°
RAAN
183.0644°
Arg. of periapsis
95.5349°
True anomaly
264.55495°
Mean anomaly
265.4165°
Eccentric anomaly
264.98566°
Mean motion
3.61716 °/min
Orbital period
99.53 mins
BSTAR
0.000031856
Loading maneuver chart data...
Computing Atmospheric mass density...
Loading historical data...
Loading historical data...
Loading historical data...
Loading historical data...
Loading historical data...
Loading historical data...
Loading historical data...
Other satellites on launch #2 in the year 1962 (1962-02-08 UTC)

Documentation

Showing up to 5 results
|